TimeMST,TemperatureF,Dew PointF,Humidity,Sea Level PressureIn,VisibilityMPH,Wind Direction,Wind SpeedMPH,Gust SpeedMPH,PrecipitationIn,Events,Conditions,WindDirDegrees,DateUTC
12:53 AM,28.9,17.1,61,29.91,10.0,Calm,Calm,-,N/A,,Clear,0,2012-12-13 07:53:00
1:53 AM,30.0,18.0,61,29.91,10.0,NNW,3.5,-,N/A,,Clear,330,2012-12-13 08:53:00
2:53 AM,28.0,18.0,66,29.93,10.0,NNW,5.8,-,N/A,,Clear,330,2012-12-13 09:53:00
3:53 AM,28.9,17.1,61,29.92,10.0,North,6.9,-,N/A,,Clear,350,2012-12-13 10:53:00
4:53 AM,28.0,17.1,63,29.94,10.0,North,6.9,-,N/A,,Clear,360,2012-12-13 11:53:00
5:53 AM,28.0,17.1,63,29.95,10.0,Calm,Calm,-,N/A,,Clear,0,2012-12-13 12:53:00
6:53 AM,28.0,18.0,66,29.96,10.0,Calm,Calm,-,N/A,,Clear,0,2012-12-13 13:53:00
7:53 AM,30.9,18.0,59,29.96,10.0,Calm,Calm,-,N/A,,Clear,0,2012-12-13 14:53:00
8:53 AM,30.0,19.9,66,29.97,10.0,Calm,Calm,-,N/A,,Clear,0,2012-12-13 15:53:00
9:53 AM,33.1,21.0,61,29.97,10.0,Variable,3.5,-,N/A,,Clear,0,2012-12-13 16:53:00
10:53 AM,37.9,21.0,51,29.97,10.0,SW,9.2,-,N/A,,Clear,220,2012-12-13 17:53:00
11:53 AM,44.1,19.9,38,29.93,10.0,West,10.4,-,N/A,,Clear,280,2012-12-13 18:53:00
12:53 PM,51.1,19.0,28,29.89,10.0,WSW,11.5,-,N/A,,Clear,250,2012-12-13 19:53:00
1:53 PM,50.0,21.0,32,29.88,10.0,West,13.8,-,N/A,,Clear,260,2012-12-13 20:53:00
2:53 PM,50.0,19.0,29,29.89,10.0,West,13.8,-,N/A,,Clear,260,2012-12-13 21:53:00
4:53 PM,43.0,18.0,37,29.90,10.0,SSW,10.4,-,N/A,,Clear,210,2012-12-13 23:53:00
6:53 PM,44.1,15.1,31,29.90,10.0,WSW,3.5,-,N/A,,Partly Cloudy,240,2012-12-14 01:53:00
7:53 PM,34.0,16.0,48,29.92,10.0,East,3.5,-,N/A,,Clear,80,2012-12-14 02:53:00
8:53 PM,41.0,12.9,32,29.89,10.0,Calm,Calm,-,N/A,,Clear,0,2012-12-14 03:53:00
9:53 PM,34.0,14.0,44,29.90,10.0,WSW,4.6,-,N/A,,Clear,250,2012-12-14 04:53:00
11:53 PM,25.0,15.1,66,29.87,10.0,ESE,4.6,-,N/A,,Clear,110,2012-12-14 06:53:00